Multibeam Report for MV1217


Ship Name: Melville
Chief Scientist: Grupe, Benjamin
Scripps Institution of Oceanography
Source Organization: Rolling Deck to Repository
Start Date: 2012-12-08
End Date: 2012-12-15


View ISO Metadata

Visit the full NCEI Bathymetry Viewer


Multibeam Bathymetry

Cruise Details

Project: San Diego Seafloor Exploration in the Context of Climate Change Variables.
Instrument: Kongsberg EM122

Data Quality

Number of Files: 322
Number of Records: 472298
BATHYMETRY DATA Quantity Percentage
Number of Beams 204032736 100%
Number of Good Beams 189388365 92.82%
Number of Zero Beams 0 0%
Number of Flagged Beams 14644371 7.18%
AMPLITUDE DATA Quantity Percentage
Number of Beams 204032736 100%
Number of Good Beams 189388365 92.82%
Number of Zero Beams 0 0%
Number of Flagged Beams 14644371 7.18%
SIDESCAN DATA Quantity Percentage
Number of Pixels 483633152 100%
Number of Good Pixels 371179802 76.75%
Number of Zero Pixels 0 0%
Number of Flagged Pixels 112453350 23.25%

Navigation Totals

Total Time: 157.4944 hours
Total Track Length: 768.5128 km
Average Speed: 4.88 km/hr (2.6350 knots)

Cruise Bounds

Northern Extent: 32.982826
Southern Extent: 32.62805
Western Extent: -117.86116
Eastern Extent: -117.2271

Limits

Minimum Sonar Depth 2.9769 Maximum Sonar Depth 6.4115
Minimum Altitude 10.8935 Maximum Altitude 10078.2725
Minimum Depth 11.463 Maximum Depth 10242.2354
Minimum Amplitude 0 Maximum Amplitude 94.3
Minimum Sidescan 0 Maximum Sidescan 324.79

File Information

Full Resolution Bathymetry as collected (raw): 321

Files File Size Description
0000_20121208_191108_melville.all.mb58.gz 1.51MB Kongsberg multibeam vendor format
0001_20121208_191540_melville.all.mb58.gz 94.15MB Kongsberg multibeam vendor format
0002_20121208_194542_melville.all.mb58.gz 74.86MB Kongsberg multibeam vendor format
0003_20121208_201543_melville.all.mb58.gz 73.58MB Kongsberg multibeam vendor format
0004_20121208_204544_melville.all.mb58.gz 74.02MB Kongsberg multibeam vendor format
0005_20121208_211540_melville.all.mb58.gz 74.75MB Kongsberg multibeam vendor format
0006_20121208_214544_melville.all.mb58.gz 74.15MB Kongsberg multibeam vendor format
0007_20121208_221540_melville.all.mb58.gz 77.65MB Kongsberg multibeam vendor format
0008_20121208_224541_melville.all.mb58.gz 78.37MB Kongsberg multibeam vendor format
0009_20121208_231540_melville.all.mb58.gz 76.59MB Kongsberg multibeam vendor format
0010_20121208_234544_melville.all.mb58.gz 77.19MB Kongsberg multibeam vendor format
0011_20121209_001541_melville.all.mb58.gz 77.78MB Kongsberg multibeam vendor format
0012_20121209_004539_melville.all.mb58.gz 80.53MB Kongsberg multibeam vendor format
0013_20121209_011639_melville.all.mb58.gz 79.12MB Kongsberg multibeam vendor format
0014_20121209_014637_melville.all.mb58.gz 87.22MB Kongsberg multibeam vendor format
0015_20121209_021634_melville.all.mb58.gz 87.17MB Kongsberg multibeam vendor format
0016_20121209_024636_melville.all.mb58.gz 85.58MB Kongsberg multibeam vendor format
0017_20121209_031636_melville.all.mb58.gz 84.50MB Kongsberg multibeam vendor format
0018_20121209_034635_melville.all.mb58.gz 87.13MB Kongsberg multibeam vendor format
0019_20121209_041635_melville.all.mb58.gz 83.23MB Kongsberg multibeam vendor format
0020_20121209_044634_melville.all.mb58.gz 80.59MB Kongsberg multibeam vendor format
0021_20121209_051634_melville.all.mb58.gz 81.74MB Kongsberg multibeam vendor format
0022_20121209_054636_melville.all.mb58.gz 82.13MB Kongsberg multibeam vendor format
0023_20121209_061637_melville.all.mb58.gz 82.02MB Kongsberg multibeam vendor format
0024_20121209_064635_melville.all.mb58.gz 82.92MB Kongsberg multibeam vendor format
0025_20121209_071634_melville.all.mb58.gz 41.19MB Kongsberg multibeam vendor format
0026_20121209_073345_melville.all.mb58.gz 82.25MB Kongsberg multibeam vendor format
0027_20121209_080323_melville.all.mb58.gz 83.04MB Kongsberg multibeam vendor format
0028_20121209_083322_melville.all.mb58.gz 83.88MB Kongsberg multibeam vendor format
0029_20121209_090322_melville.all.mb58.gz 83.99MB Kongsberg multibeam vendor format
0030_20121209_093321_melville.all.mb58.gz 83.90MB Kongsberg multibeam vendor format
0031_20121209_100321_melville.all.mb58.gz 83.36MB Kongsberg multibeam vendor format
0032_20121209_103322_melville.all.mb58.gz 88.41MB Kongsberg multibeam vendor format
0033_20121209_110321_melville.all.mb58.gz 93.35MB Kongsberg multibeam vendor format
0034_20121209_113320_melville.all.mb58.gz 105.66MB Kongsberg multibeam vendor format
0035_20121209_120321_melville.all.mb58.gz 100.91MB Kongsberg multibeam vendor format
0036_20121209_123320_melville.all.mb58.gz 93.33MB Kongsberg multibeam vendor format
0037_20121209_130320_melville.all.mb58.gz 85.76MB Kongsberg multibeam vendor format
0038_20121209_133322_melville.all.mb58.gz 84.63MB Kongsberg multibeam vendor format
0039_20121209_140319_melville.all.mb58.gz 84.88MB Kongsberg multibeam vendor format
0040_20121209_143319_melville.all.mb58.gz 87.39MB Kongsberg multibeam vendor format
0041_20121209_150320_melville.all.mb58.gz 125.06MB Kongsberg multibeam vendor format
0042_20121209_153319_melville.all.mb58.gz 142.76MB Kongsberg multibeam vendor format
0043_20121210_015337_melville.all.mb58.gz 3.02MB Kongsberg multibeam vendor format
0044_20121210_020142_melville.all.mb58.gz 160.08MB Kongsberg multibeam vendor format
0045_20121210_023142_melville.all.mb58.gz 168.33MB Kongsberg multibeam vendor format
0046_20121210_030142_melville.all.mb58.gz 178.57MB Kongsberg multibeam vendor format
0047_20121210_033142_melville.all.mb58.gz 145.34MB Kongsberg multibeam vendor format
0048_20121210_040142_melville.all.mb58.gz 129.92MB Kongsberg multibeam vendor format
0049_20121210_043142_melville.all.mb58.gz 114.01MB Kongsberg multibeam vendor format
0050_20121210_050142_melville.all.mb58.gz 96.66MB Kongsberg multibeam vendor format
0051_20121210_053143_melville.all.mb58.gz 85.98MB Kongsberg multibeam vendor format
0052_20121210_060143_melville.all.mb58.gz 85.51MB Kongsberg multibeam vendor format
0053_20121210_063142_melville.all.mb58.gz 85.93MB Kongsberg multibeam vendor format
0054_20121210_070142_melville.all.mb58.gz 84.95MB Kongsberg multibeam vendor format
0055_20121210_073141_melville.all.mb58.gz 84.22MB Kongsberg multibeam vendor format
0056_20121210_080143_melville.all.mb58.gz 84.06MB Kongsberg multibeam vendor format
0057_20121210_083143_melville.all.mb58.gz 81.87MB Kongsberg multibeam vendor format
0058_20121210_090143_melville.all.mb58.gz 82.65MB Kongsberg multibeam vendor format
0059_20121210_093143_melville.all.mb58.gz 82.85MB Kongsberg multibeam vendor format
0060_20121210_100143_melville.all.mb58.gz 82.70MB Kongsberg multibeam vendor format
0061_20121210_103140_melville.all.mb58.gz 83.75MB Kongsberg multibeam vendor format
0062_20121210_110141_melville.all.mb58.gz 93.15MB Kongsberg multibeam vendor format
0063_20121210_113140_melville.all.mb58.gz 92.23MB Kongsberg multibeam vendor format
0064_20121210_120140_melville.all.mb58.gz 92.05MB Kongsberg multibeam vendor format
0065_20121210_123140_melville.all.mb58.gz 119.83MB Kongsberg multibeam vendor format
0066_20121210_130140_melville.all.mb58.gz 143.68MB Kongsberg multibeam vendor format
0067_20121210_133140_melville.all.mb58.gz 150.34MB Kongsberg multibeam vendor format
0068_20121210_140140_melville.all.mb58.gz 158.92MB Kongsberg multibeam vendor format
0069_20121210_143140_melville.all.mb58.gz 189.78MB Kongsberg multibeam vendor format
0070_20121210_150139_melville.all.mb58.gz 192.68MB Kongsberg multibeam vendor format
0071_20121210_153140_melville.all.mb58.gz 132.79MB Kongsberg multibeam vendor format
0072_20121210_160140_melville.all.mb58.gz 6.44MB Kongsberg multibeam vendor format
0072_20121210_160441_melville.all.mb58.gz 147.44MB Kongsberg multibeam vendor format
0073_20121210_163419_melville.all.mb58.gz 36.07MB Kongsberg multibeam vendor format
0074_20121210_164320_melville.all.mb58.gz 145.67MB Kongsberg multibeam vendor format
0075_20121210_171257_melville.all.mb58.gz 126.66MB Kongsberg multibeam vendor format
0076_20121210_174257_melville.all.mb58.gz 103.84MB Kongsberg multibeam vendor format
0077_20121210_181257_melville.all.mb58.gz 100.24MB Kongsberg multibeam vendor format
0078_20121210_184256_melville.all.mb58.gz 100.02MB Kongsberg multibeam vendor format
0079_20121210_191257_melville.all.mb58.gz 99.69MB Kongsberg multibeam vendor format
0080_20121210_194257_melville.all.mb58.gz 93.08MB Kongsberg multibeam vendor format
0081_20121210_201257_melville.all.mb58.gz 91.94MB Kongsberg multibeam vendor format
0082_20121210_204258_melville.all.mb58.gz 92.31MB Kongsberg multibeam vendor format
0083_20121210_211258_melville.all.mb58.gz 91.62MB Kongsberg multibeam vendor format
0084_20121210_214257_melville.all.mb58.gz 91.59MB Kongsberg multibeam vendor format
0085_20121210_221258_melville.all.mb58.gz 89.41MB Kongsberg multibeam vendor format
0086_20121210_224258_melville.all.mb58.gz 89.24MB Kongsberg multibeam vendor format
0087_20121210_231256_melville.all.mb58.gz 90.82MB Kongsberg multibeam vendor format
0088_20121210_234257_melville.all.mb58.gz 64.52MB Kongsberg multibeam vendor format
0088_20121211_000501_melville.all.mb58.gz 88.13MB Kongsberg multibeam vendor format
0089_20121211_003502_melville.all.mb58.gz 89.00MB Kongsberg multibeam vendor format
0090_20121211_010501_melville.all.mb58.gz 91.30MB Kongsberg multibeam vendor format
0091_20121211_013502_melville.all.mb58.gz 91.61MB Kongsberg multibeam vendor format
0092_20121211_020501_melville.all.mb58.gz 94.10MB Kongsberg multibeam vendor format
0093_20121211_023501_melville.all.mb58.gz 93.10MB Kongsberg multibeam vendor format
0094_20121211_030500_melville.all.mb58.gz 83.10MB Kongsberg multibeam vendor format
0095_20121211_033502_melville.all.mb58.gz 82.16MB Kongsberg multibeam vendor format
0096_20121211_040500_melville.all.mb58.gz 82.01MB Kongsberg multibeam vendor format
0097_20121211_043500_melville.all.mb58.gz 82.21MB Kongsberg multibeam vendor format
0098_20121211_050500_melville.all.mb58.gz 81.76MB Kongsberg multibeam vendor format
0099_20121211_053501_melville.all.mb58.gz 82.09MB Kongsberg multibeam vendor format
0100_20121211_060500_melville.all.mb58.gz 82.21MB Kongsberg multibeam vendor format
0101_20121211_063500_melville.all.mb58.gz 81.96MB Kongsberg multibeam vendor format
0102_20121211_070500_melville.all.mb58.gz 80.77MB Kongsberg multibeam vendor format
0103_20121211_073501_melville.all.mb58.gz 87.27MB Kongsberg multibeam vendor format
0104_20121211_080458_melville.all.mb58.gz 89.95MB Kongsberg multibeam vendor format
0105_20121211_083459_melville.all.mb58.gz 87.76MB Kongsberg multibeam vendor format
0106_20121211_090459_melville.all.mb58.gz 106.20MB Kongsberg multibeam vendor format
0107_20121211_093457_melville.all.mb58.gz 153.45MB Kongsberg multibeam vendor format
0108_20121211_100457_melville.all.mb58.gz 153.98MB Kongsberg multibeam vendor format
0109_20121211_103457_melville.all.mb58.gz 180.19MB Kongsberg multibeam vendor format
0110_20121211_110457_melville.all.mb58.gz 190.59MB Kongsberg multibeam vendor format
0111_20121211_113457_melville.all.mb58.gz 203.96MB Kongsberg multibeam vendor format
0112_20121211_120457_melville.all.mb58.gz 170.54MB Kongsberg multibeam vendor format
0113_20121211_123458_melville.all.mb58.gz 88.73MB Kongsberg multibeam vendor format
0114_20121211_130500_melville.all.mb58.gz 81.24MB Kongsberg multibeam vendor format
0115_20121211_133458_melville.all.mb58.gz 79.34MB Kongsberg multibeam vendor format
0116_20121211_140458_melville.all.mb58.gz 77.42MB Kongsberg multibeam vendor format
0117_20121211_143458_melville.all.mb58.gz 77.12MB Kongsberg multibeam vendor format
0118_20121211_150459_melville.all.mb58.gz 76.08MB Kongsberg multibeam vendor format
0119_20121211_153456_melville.all.mb58.gz 77.60MB Kongsberg multibeam vendor format
0120_20121211_160500_melville.all.mb58.gz 77.78MB Kongsberg multibeam vendor format
0121_20121211_163456_melville.all.mb58.gz 77.38MB Kongsberg multibeam vendor format
0122_20121211_170455_melville.all.mb58.gz 78.44MB Kongsberg multibeam vendor format
0123_20121211_173500_melville.all.mb58.gz 77.72MB Kongsberg multibeam vendor format
0124_20121211_180455_melville.all.mb58.gz 77.76MB Kongsberg multibeam vendor format
0125_20121211_183501_melville.all.mb58.gz 77.50MB Kongsberg multibeam vendor format
0126_20121211_190459_melville.all.mb58.gz 77.29MB Kongsberg multibeam vendor format
0127_20121211_193455_melville.all.mb58.gz 77.82MB Kongsberg multibeam vendor format
0128_20121211_200500_melville.all.mb58.gz 77.26MB Kongsberg multibeam vendor format
0129_20121211_203500_melville.all.mb58.gz 77.61MB Kongsberg multibeam vendor format
0130_20121211_210500_melville.all.mb58.gz 77.16MB Kongsberg multibeam vendor format
0131_20121211_213454_melville.all.mb58.gz 77.53MB Kongsberg multibeam vendor format
0132_20121211_220459_melville.all.mb58.gz 77.38MB Kongsberg multibeam vendor format
0133_20121211_223456_melville.all.mb58.gz 77.31MB Kongsberg multibeam vendor format
0134_20121211_230455_melville.all.mb58.gz 76.85MB Kongsberg multibeam vendor format
0135_20121211_233457_melville.all.mb58.gz 77.36MB Kongsberg multibeam vendor format
0136_20121212_000459_melville.all.mb58.gz 77.22MB Kongsberg multibeam vendor format
0137_20121212_003454_melville.all.mb58.gz 77.62MB Kongsberg multibeam vendor format
0138_20121212_010454_melville.all.mb58.gz 77.76MB Kongsberg multibeam vendor format
0139_20121212_013456_melville.all.mb58.gz 77.75MB Kongsberg multibeam vendor format
0140_20121212_020456_melville.all.mb58.gz 77.95MB Kongsberg multibeam vendor format
0141_20121212_023457_melville.all.mb58.gz 77.94MB Kongsberg multibeam vendor format
0142_20121212_030454_melville.all.mb58.gz 77.56MB Kongsberg multibeam vendor format
0143_20121212_033455_melville.all.mb58.gz 75.10MB Kongsberg multibeam vendor format
0144_20121212_040453_melville.all.mb58.gz 76.57MB Kongsberg multibeam vendor format
0145_20121212_043452_melville.all.mb58.gz 76.93MB Kongsberg multibeam vendor format
0146_20121212_050453_melville.all.mb58.gz 76.97MB Kongsberg multibeam vendor format
0147_20121212_053452_melville.all.mb58.gz 78.45MB Kongsberg multibeam vendor format
0148_20121212_060451_melville.all.mb58.gz 79.76MB Kongsberg multibeam vendor format
0149_20121212_063454_melville.all.mb58.gz 78.51MB Kongsberg multibeam vendor format
0150_20121212_070455_melville.all.mb58.gz 78.81MB Kongsberg multibeam vendor format
0151_20121212_073455_melville.all.mb58.gz 78.77MB Kongsberg multibeam vendor format
0152_20121212_080455_melville.all.mb58.gz 79.06MB Kongsberg multibeam vendor format
0153_20121212_083452_melville.all.mb58.gz 80.81MB Kongsberg multibeam vendor format
0154_20121212_090451_melville.all.mb58.gz 85.66MB Kongsberg multibeam vendor format
0155_20121212_093453_melville.all.mb58.gz 90.07MB Kongsberg multibeam vendor format
0156_20121212_100450_melville.all.mb58.gz 93.08MB Kongsberg multibeam vendor format
0157_20121212_103450_melville.all.mb58.gz 106.13MB Kongsberg multibeam vendor format
0158_20121212_110450_melville.all.mb58.gz 130.45MB Kongsberg multibeam vendor format
0159_20121212_113450_melville.all.mb58.gz 94.41MB Kongsberg multibeam vendor format
0160_20121212_120450_melville.all.mb58.gz 83.30MB Kongsberg multibeam vendor format
0161_20121212_123451_melville.all.mb58.gz 84.38MB Kongsberg multibeam vendor format
0162_20121212_130451_melville.all.mb58.gz 89.73MB Kongsberg multibeam vendor format
0163_20121212_133449_melville.all.mb58.gz 87.77MB Kongsberg multibeam vendor format
0164_20121212_140449_melville.all.mb58.gz 86.12MB Kongsberg multibeam vendor format
0165_20121212_143449_melville.all.mb58.gz 88.24MB Kongsberg multibeam vendor format
0166_20121212_150451_melville.all.mb58.gz 83.24MB Kongsberg multibeam vendor format
0167_20121212_153451_melville.all.mb58.gz 79.16MB Kongsberg multibeam vendor format
0168_20121212_160449_melville.all.mb58.gz 79.86MB Kongsberg multibeam vendor format
0169_20121212_163450_melville.all.mb58.gz 80.50MB Kongsberg multibeam vendor format
0170_20121212_170451_melville.all.mb58.gz 80.26MB Kongsberg multibeam vendor format
0171_20121212_173450_melville.all.mb58.gz 80.25MB Kongsberg multibeam vendor format
0172_20121212_180449_melville.all.mb58.gz 80.31MB Kongsberg multibeam vendor format
0173_20121212_183452_melville.all.mb58.gz 79.64MB Kongsberg multibeam vendor format
0174_20121212_190448_melville.all.mb58.gz 79.93MB Kongsberg multibeam vendor format
0175_20121212_193451_melville.all.mb58.gz 80.01MB Kongsberg multibeam vendor format
0176_20121212_200451_melville.all.mb58.gz 79.81MB Kongsberg multibeam vendor format
0177_20121212_203449_melville.all.mb58.gz 80.04MB Kongsberg multibeam vendor format
0178_20121212_210452_melville.all.mb58.gz 79.49MB Kongsberg multibeam vendor format
0179_20121212_213448_melville.all.mb58.gz 79.97MB Kongsberg multibeam vendor format
0180_20121212_220449_melville.all.mb58.gz 79.76MB Kongsberg multibeam vendor format
0181_20121212_223447_melville.all.mb58.gz 79.56MB Kongsberg multibeam vendor format
0182_20121212_230447_melville.all.mb58.gz 79.40MB Kongsberg multibeam vendor format
0183_20121212_233446_melville.all.mb58.gz 78.40MB Kongsberg multibeam vendor format
0184_20121213_000447_melville.all.mb58.gz 81.02MB Kongsberg multibeam vendor format
0185_20121213_003446_melville.all.mb58.gz 83.27MB Kongsberg multibeam vendor format
0186_20121213_010449_melville.all.mb58.gz 79.59MB Kongsberg multibeam vendor format
0187_20121213_013446_melville.all.mb58.gz 84.22MB Kongsberg multibeam vendor format
0188_20121213_020446_melville.all.mb58.gz 90.67MB Kongsberg multibeam vendor format
0189_20121213_023446_melville.all.mb58.gz 88.04MB Kongsberg multibeam vendor format
0190_20121213_030447_melville.all.mb58.gz 87.91MB Kongsberg multibeam vendor format
0191_20121213_033445_melville.all.mb58.gz 87.96MB Kongsberg multibeam vendor format
0192_20121213_040445_melville.all.mb58.gz 89.48MB Kongsberg multibeam vendor format
0193_20121213_043445_melville.all.mb58.gz 86.90MB Kongsberg multibeam vendor format
0194_20121213_050447_melville.all.mb58.gz 81.57MB Kongsberg multibeam vendor format
0195_20121213_053449_melville.all.mb58.gz 79.14MB Kongsberg multibeam vendor format
0196_20121213_060448_melville.all.mb58.gz 79.05MB Kongsberg multibeam vendor format
0197_20121213_063444_melville.all.mb58.gz 80.97MB Kongsberg multibeam vendor format
0198_20121213_070445_melville.all.mb58.gz 79.56MB Kongsberg multibeam vendor format
0199_20121213_073445_melville.all.mb58.gz 77.78MB Kongsberg multibeam vendor format
0200_20121213_080446_melville.all.mb58.gz 75.69MB Kongsberg multibeam vendor format
0201_20121213_083446_melville.all.mb58.gz 75.84MB Kongsberg multibeam vendor format
0202_20121213_090448_melville.all.mb58.gz 75.77MB Kongsberg multibeam vendor format
0203_20121213_093444_melville.all.mb58.gz 86.29MB Kongsberg multibeam vendor format
0204_20121213_100443_melville.all.mb58.gz 86.75MB Kongsberg multibeam vendor format
0205_20121213_103444_melville.all.mb58.gz 83.57MB Kongsberg multibeam vendor format
0206_20121213_110443_melville.all.mb58.gz 83.25MB Kongsberg multibeam vendor format
0207_20121213_113443_melville.all.mb58.gz 89.60MB Kongsberg multibeam vendor format
0208_20121213_120443_melville.all.mb58.gz 87.11MB Kongsberg multibeam vendor format
0209_20121213_123446_melville.all.mb58.gz 78.35MB Kongsberg multibeam vendor format
0210_20121213_130443_melville.all.mb58.gz 81.03MB Kongsberg multibeam vendor format
0211_20121213_133442_melville.all.mb58.gz 90.89MB Kongsberg multibeam vendor format
0212_20121213_140442_melville.all.mb58.gz 179.44MB Kongsberg multibeam vendor format
0213_20121213_143442_melville.all.mb58.gz 159.71MB Kongsberg multibeam vendor format
0214_20121213_150441_melville.all.mb58.gz 186.07MB Kongsberg multibeam vendor format
0215_20121213_153441_melville.all.mb58.gz 112.34MB Kongsberg multibeam vendor format
0216_20121213_160441_melville.all.mb58.gz 87.05MB Kongsberg multibeam vendor format
0217_20121213_163442_melville.all.mb58.gz 81.91MB Kongsberg multibeam vendor format
0218_20121213_170442_melville.all.mb58.gz 79.81MB Kongsberg multibeam vendor format
0219_20121213_173440_melville.all.mb58.gz 78.15MB Kongsberg multibeam vendor format
0220_20121213_180441_melville.all.mb58.gz 75.64MB Kongsberg multibeam vendor format
0221_20121213_183443_melville.all.mb58.gz 75.92MB Kongsberg multibeam vendor format
0222_20121213_190447_melville.all.mb58.gz 74.69MB Kongsberg multibeam vendor format
0223_20121213_193440_melville.all.mb58.gz 75.66MB Kongsberg multibeam vendor format
0224_20121213_200440_melville.all.mb58.gz 75.74MB Kongsberg multibeam vendor format
0225_20121213_203445_melville.all.mb58.gz 75.63MB Kongsberg multibeam vendor format
0226_20121213_210445_melville.all.mb58.gz 75.98MB Kongsberg multibeam vendor format
0227_20121213_213445_melville.all.mb58.gz 78.07MB Kongsberg multibeam vendor format
0228_20121213_220444_melville.all.mb58.gz 77.90MB Kongsberg multibeam vendor format
0229_20121213_223440_melville.all.mb58.gz 78.00MB Kongsberg multibeam vendor format
0230_20121213_230442_melville.all.mb58.gz 77.27MB Kongsberg multibeam vendor format
0231_20121213_233442_melville.all.mb58.gz 76.98MB Kongsberg multibeam vendor format
0232_20121214_000441_melville.all.mb58.gz 77.06MB Kongsberg multibeam vendor format
0233_20121214_003443_melville.all.mb58.gz 77.27MB Kongsberg multibeam vendor format
0234_20121214_010441_melville.all.mb58.gz 77.72MB Kongsberg multibeam vendor format
0235_20121214_013444_melville.all.mb58.gz 77.93MB Kongsberg multibeam vendor format
0236_20121214_020440_melville.all.mb58.gz 77.75MB Kongsberg multibeam vendor format
0237_20121214_023438_melville.all.mb58.gz 78.44MB Kongsberg multibeam vendor format
0238_20121214_030440_melville.all.mb58.gz 77.25MB Kongsberg multibeam vendor format
0239_20121214_033438_melville.all.mb58.gz 58.89MB Kongsberg multibeam vendor format
0239_20121214_041318_melville.all.mb58.gz 74.47MB Kongsberg multibeam vendor format
0240_20121214_044319_melville.all.mb58.gz 74.47MB Kongsberg multibeam vendor format
0241_20121214_051319_melville.all.mb58.gz 74.35MB Kongsberg multibeam vendor format
0242_20121214_054318_melville.all.mb58.gz 74.76MB Kongsberg multibeam vendor format
0243_20121214_061315_melville.all.mb58.gz 75.22MB Kongsberg multibeam vendor format
0244_20121214_064317_melville.all.mb58.gz 75.10MB Kongsberg multibeam vendor format
0245_20121214_071317_melville.all.mb58.gz 74.86MB Kongsberg multibeam vendor format
0246_20121214_074317_melville.all.mb58.gz 74.26MB Kongsberg multibeam vendor format
0247_20121214_081318_melville.all.mb58.gz 74.83MB Kongsberg multibeam vendor format
0248_20121214_084317_melville.all.mb58.gz 74.83MB Kongsberg multibeam vendor format
0249_20121214_091317_melville.all.mb58.gz 74.86MB Kongsberg multibeam vendor format
0250_20121214_094317_melville.all.mb58.gz 75.18MB Kongsberg multibeam vendor format
0251_20121214_101312_melville.all.mb58.gz 92.37MB Kongsberg multibeam vendor format
0252_20121214_104312_melville.all.mb58.gz 86.95MB Kongsberg multibeam vendor format
0253_20121214_111312_melville.all.mb58.gz 84.56MB Kongsberg multibeam vendor format
0254_20121214_114312_melville.all.mb58.gz 80.12MB Kongsberg multibeam vendor format
0255_20121214_121313_melville.all.mb58.gz 79.26MB Kongsberg multibeam vendor format
0256_20121214_124311_melville.all.mb58.gz 93.48MB Kongsberg multibeam vendor format
0257_20121214_131312_melville.all.mb58.gz 95.94MB Kongsberg multibeam vendor format
0258_20121214_134312_melville.all.mb58.gz 92.27MB Kongsberg multibeam vendor format
0259_20121214_141311_melville.all.mb58.gz 89.92MB Kongsberg multibeam vendor format
0260_20121214_144312_melville.all.mb58.gz 87.68MB Kongsberg multibeam vendor format
0261_20121214_151312_melville.all.mb58.gz 93.89MB Kongsberg multibeam vendor format
0262_20121214_154310_melville.all.mb58.gz 142.25MB Kongsberg multibeam vendor format
0263_20121214_161310_melville.all.mb58.gz 149.90MB Kongsberg multibeam vendor format
0264_20121214_164310_melville.all.mb58.gz 118.55MB Kongsberg multibeam vendor format
0265_20121214_171310_melville.all.mb58.gz 102.85MB Kongsberg multibeam vendor format
0266_20121214_174310_melville.all.mb58.gz 76.04MB Kongsberg multibeam vendor format
0267_20121214_181311_melville.all.mb58.gz 74.67MB Kongsberg multibeam vendor format
0268_20121214_184313_melville.all.mb58.gz 74.98MB Kongsberg multibeam vendor format
0269_20121214_191311_melville.all.mb58.gz 75.37MB Kongsberg multibeam vendor format
0270_20121214_194314_melville.all.mb58.gz 75.40MB Kongsberg multibeam vendor format
0271_20121214_201314_melville.all.mb58.gz 75.29MB Kongsberg multibeam vendor format
0272_20121214_204313_melville.all.mb58.gz 75.00MB Kongsberg multibeam vendor format
0273_20121214_211314_melville.all.mb58.gz 74.42MB Kongsberg multibeam vendor format
0274_20121214_214309_melville.all.mb58.gz 74.50MB Kongsberg multibeam vendor format
0275_20121214_221312_melville.all.mb58.gz 76.62MB Kongsberg multibeam vendor format
0276_20121214_224313_melville.all.mb58.gz 76.48MB Kongsberg multibeam vendor format
0277_20121214_231312_melville.all.mb58.gz 76.09MB Kongsberg multibeam vendor format
0278_20121214_234308_melville.all.mb58.gz 77.73MB Kongsberg multibeam vendor format
0279_20121215_001311_melville.all.mb58.gz 79.61MB Kongsberg multibeam vendor format
0280_20121215_004308_melville.all.mb58.gz 80.22MB Kongsberg multibeam vendor format
0281_20121215_011308_melville.all.mb58.gz 80.46MB Kongsberg multibeam vendor format
0282_20121215_014312_melville.all.mb58.gz 79.73MB Kongsberg multibeam vendor format
0283_20121215_021308_melville.all.mb58.gz 80.40MB Kongsberg multibeam vendor format
0284_20121215_024311_melville.all.mb58.gz 79.89MB Kongsberg multibeam vendor format
0285_20121215_031307_melville.all.mb58.gz 80.31MB Kongsberg multibeam vendor format
0286_20121215_034311_melville.all.mb58.gz 80.34MB Kongsberg multibeam vendor format
0287_20121215_041308_melville.all.mb58.gz 80.35MB Kongsberg multibeam vendor format
0288_20121215_044308_melville.all.mb58.gz 80.29MB Kongsberg multibeam vendor format
0289_20121215_051307_melville.all.mb58.gz 83.32MB Kongsberg multibeam vendor format
0290_20121215_054308_melville.all.mb58.gz 136.64MB Kongsberg multibeam vendor format
0291_20121215_061306_melville.all.mb58.gz 159.22MB Kongsberg multibeam vendor format
0292_20121215_064306_melville.all.mb58.gz 158.38MB Kongsberg multibeam vendor format
0293_20121215_071305_melville.all.mb58.gz 150.17MB Kongsberg multibeam vendor format
0294_20121215_074305_melville.all.mb58.gz 154.64MB Kongsberg multibeam vendor format
0295_20121215_081305_melville.all.mb58.gz 161.33MB Kongsberg multibeam vendor format
0296_20121215_084305_melville.all.mb58.gz 183.28MB Kongsberg multibeam vendor format
0297_20121215_091305_melville.all.mb58.gz 176.32MB Kongsberg multibeam vendor format
0298_20121215_094305_melville.all.mb58.gz 137.27MB Kongsberg multibeam vendor format
0299_20121215_101306_melville.all.mb58.gz 95.75MB Kongsberg multibeam vendor format
0300_20121215_104305_melville.all.mb58.gz 93.11MB Kongsberg multibeam vendor format
0301_20121215_111306_melville.all.mb58.gz 92.98MB Kongsberg multibeam vendor format
0302_20121215_114307_melville.all.mb58.gz 95.20MB Kongsberg multibeam vendor format
0303_20121215_121305_melville.all.mb58.gz 98.40MB Kongsberg multibeam vendor format
0304_20121215_124304_melville.all.mb58.gz 93.37MB Kongsberg multibeam vendor format
0305_20121215_131306_melville.all.mb58.gz 88.20MB Kongsberg multibeam vendor format
0306_20121215_134305_melville.all.mb58.gz 88.81MB Kongsberg multibeam vendor format
0307_20121215_141306_melville.all.mb58.gz 80.09MB Kongsberg multibeam vendor format
0308_20121215_144308_melville.all.mb58.gz 76.15MB Kongsberg multibeam vendor format
0309_20121215_151308_melville.all.mb58.gz 76.49MB Kongsberg multibeam vendor format
0310_20121215_154306_melville.all.mb58.gz 76.47MB Kongsberg multibeam vendor format
0311_20121215_161303_melville.all.mb58.gz 76.37MB Kongsberg multibeam vendor format
0312_20121215_164307_melville.all.mb58.gz 76.27MB Kongsberg multibeam vendor format
0313_20121215_171309_melville.all.mb58.gz 77.08MB Kongsberg multibeam vendor format
0314_20121215_174305_melville.all.mb58.gz 87.26MB Kongsberg multibeam vendor format
0315_20121215_181304_melville.all.mb58.gz 111.21MB Kongsberg multibeam vendor format
0316_20121215_184303_melville.all.mb58.gz 194.59MB Kongsberg multibeam vendor format
0317_20121215_191302_melville.all.mb58.gz 166.20MB Kongsberg multibeam vendor format

Metadata Files: 1

Files File Size Description
MV1217_Multibeam.xml NGDC created ISO metadata